CW9849 Weather Reports


Display with metric or nautical units.
time (UTC)temp
F
wind
direction
speed
MPH
gust
MPH
rain 1hr
in
rain 24hr
in
rain mn
in
humidity
%
barometer
mb
20260905134525 71 158 9.0 14.0 0.00 0.00 0.00 61 1026.8
20260905133022 71 160 10.0 14.0 0.00 0.00 0.00 60 1027.0
20260905131532 71 148 10.0 14.0 0.00 0.00 0.00 59 1026.9
20260905130019 72 136 9.0 14.0 0.00 0.00 0.00 58 1027.0
20260905124519 72 147 8.0 12.0 0.00 0.00 0.00 57 1026.8
20260905123019 71 141 7.0 12.0 0.00 0.00 0.00 59 1026.9
20260905121516 71 136 8.0 13.0 0.00 0.00 0.00 58 1026.8
20260905120022 71 130 9.0 14.0 0.00 0.00 0.00 59 1026.9
20260905114518 71 151 9.0 13.0 0.00 0.00 0.00 59 1027.0
20260905113013 72 199 6.0 11.0 0.00 0.00 0.00 58 1027.0
20260905111518 73 156 6.0 11.0 0.00 0.00 0.00 58 1027.0
20260905110011 72 148 6.0 10.0 0.00 0.00 0.00 57 1026.9
20260905104517 72 150 6.0 10.0 0.00 0.00 0.00 57 1026.9
20260905103013 73 161 6.0 9.0 0.00 0.00 0.00 55 1026.9
20260905101506 72 138 4.0 8.0 0.00 0.00 0.00 56 1026.8
20260905100003 72 218 6.0 8.0 0.00 0.00 0.00 59 1026.6
20260905094717 70 194 2.0 4.0 0.00 0.00 0.00 60 1026.6
20260905093108 68 178 2.0 5.0 0.00 0.00 0.00 64 1026.4
20260905091557 67 297 2.0 5.0 0.00 0.00 0.00 62 1026.3
20260905090050 67 223 1.0 4.0 0.00 0.00 0.00 63 1026.4
20260905084601 67 190 2.0 4.0 0.00 0.00 0.00 65 1026.4
20260905083046 67 212 3.0 5.0 0.00 0.00 0.00 66 1026.4
20260905081542 66 195 2.0 4.0 0.00 0.00 0.00 71 1026.3
20260905080038 64 195 2.0 3.0 0.00 0.00 0.00 76 1026.3
20260905074535 63 231 1.0 3.0 0.00 0.00 0.00 76 1026.1
20260905073032 63 250 2.0 4.0 0.00 0.00 0.00 77 1026.0
20260905071527 60 222 2.0 3.0 0.00 0.00 0.00 82 1026.0
20260905070025 59 227 2.0 3.0 0.00 0.00 0.00 80 1025.8
20260905064523 59 236 2.0 3.0 0.00 0.00 0.00 78 1025.7
20260905063023 59 258 1.0 3.0 0.00 0.00 0.00 77 1025.7
20260905061527 59 297 2.0 4.0 0.00 0.00 0.00 75 1025.7
20260905060024 59 317 4.0 5.0 0.00 0.00 0.00 74 1025.4
20260905054521 59 307 4.0 7.0 0.00 0.02 0.00 73 1025.3
20260905053013 59 309 5.0 8.0 0.00 0.02 0.00 73 1025.1
20260905051526 59 315 5.0 8.0 0.00 0.02 0.00 74 1025.1
20260905050011 59 310 5.0 9.0 0.00 0.02 0.00 73 1025.0
20260905044609 59 298 5.0 10.0 0.00 0.02 0.00 73 1025.1
20260905043014 60 302 5.0 10.0 0.00 0.02 0.00 74 1025.1
20260905041508 60 284 8.0 12.0 0.00 0.02 0.00 73 1025.1
20260905040008 59 302 6.0 11.0 0.00 0.02 0.00 76 1024.9
20260905034506 59 304 5.0 10.0 0.00 0.02 0.00 78 1025.0
20260905033004 59 296 4.0 7.0 0.00 0.02 0.00 79 1025.0
20260905031504 60 288 5.0 8.0 0.00 0.02 0.00 81 1024.9
20260905030002 59 286 3.0 6.0 0.00 0.02 0.00 81 1024.8
20260905024612 59 295 2.0 4.0 0.00 0.02 0.00 80 1024.8
20260905023100 59 277 3.0 5.0 0.00 0.02 0.00 77 1024.7
20260905021608 59 311 4.0 7.0 0.00 0.02 0.00 76 1024.7
20260905020057 59 272 5.0 9.0 0.00 0.02 0.00 75 1024.7
20260905014555 59 302 4.0 8.0 0.00 0.02 0.00 75 1024.6
20260905013116 59 324 5.0 10.0 0.00 0.02 0.00 75 1024.6
20260905011552 59 310 5.0 9.0 0.00 0.02 0.00 75 1024.5
20260905010056 60 297 6.0 9.0 0.00 0.02 0.00 75 1024.4
20260905004548 60 309 5.0 10.0 0.00 0.02 0.00 78 1024.5
20260905003047 61 295 6.0 11.0 0.00 0.02 0.00 77 1024.5
20260905001546 60 311 6.0 11.0 0.00 0.02 0.00 76 1024.5
20260905000045 61 310 7.0 13.0 0.00 0.02 0.00 75 1024.2
20260904234543 61 298 8.0 12.0 0.00 0.02 0.00 75 1024.2
20260904233040 60 291 6.0 11.0 0.00 0.02 0.00 79 1024.2
20260904231536 61 303 6.0 10.0 0.00 0.02 0.00 79 1024.2
20260904230055 61 315 8.0 14.0 0.00 0.02 0.00 80 1024.1
20260904224534 61 288 6.0 10.0 0.00 0.02 0.02 79 1024.1
20260904223033 61 296 8.0 11.0 0.00 0.02 0.02 77 1024.1
20260904221531 60 281 8.0 12.0 0.00 0.02 0.02 77 1024.1
20260904220038 60 314 9.0 15.0 0.00 0.02 0.02 75 1024.0
20260904214529 61 303 8.0 14.0 0.00 0.02 0.02 75 1024.0
20260904213033 60 248 7.0 13.0 0.00 0.02 0.02 77 1024.1
20260904211527 61 309 7.0 12.0 0.00 0.02 0.02 78 1023.9
20260904210025 61 312 9.0 13.0 0.00 0.02 0.02 77 1023.9
20260904204524 61 309 8.0 15.0 0.00 0.02 0.02 76 1023.8
20260904203028 62 281 9.0 15.0 0.00 0.02 0.02 79 1023.7
20260904201536 61 286 10.0 16.0 0.00 0.02 0.02 78 1023.5
20260904200038 61 307 9.0 15.0 0.00 0.02 0.02 78 1023.4
20260904194521 61 286 10.0 14.0 0.00 0.02 0.02 79 1023.3
20260904193018 62 279 11.0 15.0 0.00 0.02 0.02 78 1023.1
20260904191515 62 300 9.0 15.0 0.00 0.02 0.02 80 1023.0
20260904190013 62 285 9.0 15.0 0.00 0.02 0.02 78 1022.8
20260904184511 62 296 9.0 19.0 0.00 0.02 0.02 78 1022.8
20260904183013 62 293 10.0 15.0 0.00 0.02 0.02 75 1022.7
20260904181508 62 295 9.0 18.0 0.00 0.02 0.02 73 1022.5
20260904180007 62 257 8.0 16.0 0.00 0.02 0.02 73 1022.5
20260904174507 63 288 11.0 19.0 0.00 0.02 0.02 73 1022.6
20260904173006 63 277 13.0 18.0 0.00 0.02 0.02 73 1022.5
20260904171503 63 274 11.0 19.0 0.00 0.02 0.02 72 1022.2
20260904170002 63 297 13.0 20.0 0.00 0.02 0.02 77 1022.1
20260904164501 63 295 12.0 17.0 0.00 0.02 0.02 79 1021.8
20260904163100 63 257 8.0 16.0 0.00 0.02 0.02 78 1021.8
20260904161603 63 291 10.0 15.0 0.00 0.02 0.02 77 1021.7
20260904160100 63 295 10.0 15.0 0.00 0.02 0.02 78 1021.6
20260904154600 63 277 10.0 15.0 0.00 0.02 0.02 77 1021.6
20260904153111 63 281 9.0 15.0 0.00 0.02 0.02 77 1021.4
20260904151555 63 286 12.0 19.0 0.00 0.02 0.02 72 1021.7
20260904150054 64 277 9.0 17.0 0.00 0.02 0.02 76 1021.7
20260904144602 64 296 12.0 19.0 0.00 0.02 0.02 76 1021.6
20260904143114 64 296 12.0 18.0 0.00 0.02 0.02 77 1021.5
20260904141552 65 278 11.0 18.0 0.00 0.02 0.02 77 1021.4
20260904140053 64 281 12.0 20.0 0.00 0.02 0.02 74 1021.5